TimeEDT,TemperatureF,Dew PointF,Humidity,Sea Level PressureIn,VisibilityMPH,Wind Direction,Wind SpeedMPH,Gust SpeedMPH,PrecipitationIn,Events,Conditions,WindDirDegrees,DateUTC
12:56 AM,75.9,72.0,87,29.97,10.0,SSW,5.8,-,N/A,,Clear,200,2012-09-06 04:56:00
1:56 AM,75.9,72.0,87,29.96,10.0,SSW,8.1,-,N/A,,Clear,200,2012-09-06 05:56:00
2:56 AM,75.9,72.0,87,29.96,10.0,SSW,5.8,-,N/A,,Clear,210,2012-09-06 06:56:00
3:56 AM,75.0,72.0,90,29.95,10.0,SSW,5.8,-,N/A,,Partly Cloudy,210,2012-09-06 07:56:00
4:56 AM,75.0,72.0,90,29.95,10.0,SW,4.6,-,N/A,,Clear,230,2012-09-06 08:56:00
5:56 AM,75.0,72.0,90,29.95,10.0,SW,3.5,-,N/A,,Clear,230,2012-09-06 09:56:00
6:56 AM,75.0,72.0,90,29.97,10.0,SW,5.8,-,N/A,,Clear,230,2012-09-06 10:56:00
8:56 AM,81.0,73.9,79,29.98,10.0,SW,6.9,-,N/A,,Clear,230,2012-09-06 12:56:00
9:56 AM,82.9,72.0,69,29.99,10.0,WSW,9.2,16.1,N/A,,Partly Cloudy,250,2012-09-06 13:56:00
10:56 AM,86.0,72.0,63,29.98,10.0,SW,11.5,-,N/A,,Partly Cloudy,230,2012-09-06 14:56:00
11:56 AM,86.0,72.0,63,29.97,10.0,WSW,10.4,-,N/A,,Partly Cloudy,250,2012-09-06 15:56:00
1:56 PM,90.0,72.0,55,29.94,10.0,SW,8.1,17.3,N/A,,Scattered Clouds,230,2012-09-06 17:56:00
2:56 PM,89.1,72.0,57,29.92,10.0,South,10.4,-,N/A,,Scattered Clouds,170,2012-09-06 18:56:00
3:56 PM,90.0,73.0,57,29.90,10.0,SSW,8.1,-,N/A,,Partly Cloudy,200,2012-09-06 19:56:00
5:56 PM,86.0,75.0,70,29.91,10.0,South,10.4,-,N/A,,Clear,180,2012-09-06 21:56:00
6:56 PM,82.0,73.9,76,29.91,10.0,South,6.9,-,N/A,,Clear,190,2012-09-06 22:56:00
10:14 PM,73.4,71.6,94,29.96,2.5,WNW,23.0,26.5,0.07,Rain-Thunderstorm,Heavy Thunderstorms and Rain,300,2012-09-07 02:14:00
10:18 PM,73.4,71.6,94,29.97,1.0,WNW,23.0,26.5,0.22,Rain-Thunderstorm,Heavy Thunderstorms and Rain,290,2012-09-07 02:18:00
10:23 PM,73.4,71.6,94,29.98,0.5,West,12.7,-,0.53,Fog-Rain-Thunderstorm,Heavy Thunderstorms and Rain,270,2012-09-07 02:23:00
10:38 PM,71.6,69.8,94,29.95,2.0,SW,5.8,-,0.89,Rain-Thunderstorm,Thunderstorms and Rain,220,2012-09-07 02:38:00
11:03 PM,71.6,69.8,94,29.96,9.0,ESE,8.1,-,0.00,Rain-Thunderstorm,Light Thunderstorms and Rain,110,2012-09-07 03:03:00